星链-34406 (STARLINK-34406)

导读 | 星芒AI

STARLINK-34406 是 SpaceX Starlink 卫星互联网项目中的一颗低轨卫星,属于第三代星链卫星(v1.5 或 v2 版本)。该卫星于2023年发射,旨在为全球提供高速、低延迟的宽带互联网服务。它运行在约550公里高的轨道上,配备先进推进系统和激光通信设备,以提升网络性能和卫星间通信效率。STARLINK-34406 与其他星链卫星协同工作,扩大覆盖范围,支持偏远地区互联网接入,并增强整体网络的稳定性和容量。

基本信息
目录编号:
64705
目录名称:
STARLINK-34406
国际标识:
2025-142K
轨道中心:
EARTH
卫星名称:
星链-34406
卫星全名:
星链-34406 (STARLINK-34406)
卫星状态:
在轨 (已飞行124 天)
发射日期:
2025-06-28 UTC
国别 :
美国 (US)
星等 :
--
轨道信息
数据来源 国际轨道数据 AOE轨道数据
星历时间 2025-10-30T14:33:55+0800
16小时前
查看轨道信息
2025-10-30T23:00:00+0800
8小时前
查看轨道信息
半长轴 6950.183km 6950.215km
偏心率 0.0002991 0.0003138
轨道倾角 70.001° 69.999°
近地点辐角 271.510° 271.370°
升交点赤经 283.360° 282.472°
平近点角 88.572° 183.830°
近地点 569.969km 569.899km
远地点 574.127km 574.261km
周期 96.107分钟 96.107分钟
每日圈数 14.983334 14.983231
详细信息
固有亮度:
5
最大亮度:
2.5
卫星平台:
Starlink V1.0
覆盖范围:
全球
运营商:
太空探索技术公司
运营商所在国:
美国
制造商(研发单位):
太空探索技术公司
制造商所在国:
美国
使用方式:
暂无
卫星简介
Starlink 计划是 SpaceX 推出的全球卫星互联网项目,通过发射低轨道卫星,为全球尤其是偏远地区提供高速、低延迟的互联网服务。自 2019 年起,Starlink 已部署数千颗卫星,旨在缩小全球数字鸿沟,推动互联网普及。该项目还为军事、航空等行业提供通信支持,带来广泛经济效益。
2D轨道图
3D轨道图
轨道高度分析图
轨道倾角分析图
轨道综合分析图
查看轨道综合分析图